Location: Ladd Observatory
(41.8387°N, 71.3996°W)
Time: 12:10:03
(UTC-04:00)

Daily predictions for brighter satellites

Satellite Brightness Start Highest point End
(mag) Time Altitude Azimuth Time Altitude Azimuth Time Altitude Azimuth
deb Chang Zheng 4 3.9 20:34:20 10° NNE 20:38:37 47° E 20:42:49 10° S
ISS -1.8 20:39:12 10° S 20:41:28 18° SE 20:43:44 10° E
Milstar 3 Cent rocket 4.2 20:35:42 10° WSW 20:42:00 21° SSW 20:46:19 10° SSE
Cosmos 1743 3.2 20:38:14 10° NNW 20:42:03 64° W 20:45:50 10° S
Cosmos 1606 Rocket 4.1 20:38:28 10° NNW 20:42:52 63° W 20:47:12 10° S
Cosmos 2034 Rocket 4.3 20:38:39 10° N 20:44:53 53° ENE 20:51:02 10° SSE
PSLV R/B 4.0 20:41:43 10° SW 20:45:00 36° SSE 20:48:19 10° E
Cosmos 1939 Rocket 3.5 20:41:46 10° SE 20:45:42 43° ENE 20:49:38 10° N
COSMOS 2455 3.6 20:41:30 10° SSE 20:46:37 30° ESE 20:51:46 10° NE
Meteor 1-23 Rocket 4.3 20:42:24 10° S 20:48:02 82° E 20:53:48 10° NNE
SPOT 5 3.5 20:46:20 10° SE 20:50:17 34° ENE 20:54:11 10° N
H-2A R/B 2.1 20:46:39 10° SSE 20:50:52 70° ENE 20:55:13 10° N
Cosmos 1603 4.0 20:45:55 10° S 20:51:13 45° ESE 20:56:31 10° NE
Lacrosse 5 rocket 3.3 20:48:11 10° W 20:51:43 33° NW 20:55:25 10° NNE
ALOS 3.2 20:47:58 10° S 20:52:29 50° W 20:57:03 10° NNW
Meteor 2-9 Rocket 4.3 20:49:42 10° N 20:55:26 82° E 21:01:15 10° SSE
Cosmos 1626 Rocket 3.8 20:54:57 10° S 20:59:15 51° E 21:03:33 10° NNE
Cosmos 494 Rocket 4.4 20:55:09 10° SSW 21:00:13 68° WNW 21:05:21 10° NNE
CZ-4 SHROUD 3.9 20:58:56 11° SE 21:01:48 39° ENE 21:04:47 10° N
Meteor 2-4 Rocket 4.2 20:59:18 10° SSW 21:05:08 72° W 21:11:06 10° N
Cosmos 2228 3.1 21:01:52 10° N 21:06:17 84° W 21:10:41 10° S
YAOGAN 6 4.1 21:05:15 12° ESE 21:07:52 24° ENE 21:10:55 10° NNE
Terra 4.1 21:07:14 10° ENE 21:08:13 11° ENE 21:09:12 10° NE
Cosmos 1943 4.1 21:10:07 10° SSE 21:14:54 29° ESE 21:19:44 10° NE
Nimbus 7 Rocket 4.4 21:12:50 10° NNE 21:18:50 81° ESE 21:24:44 10° SSW
Cosmos 1943 Rocket 4.2 21:15:40 10° NNE 21:18:53 15° NE 21:22:06 10° E
MetOp-A 4.4 21:14:18 12° SSE 21:19:04 55° ENE 21:24:18 10° N
H-2A R/B 3.9 21:17:15 10° E 21:20:13 16° ENE 21:23:13 10° NNE
UNK 4.3 21:19:25 10° NNE 21:24:47 58° ESE 21:30:25 10° S
PSLV R/B 3.1 21:22:51 16° SSE 21:25:14 85° E 21:28:23 10° N
Aureole 2 Rocket 4.1 21:22:59 10° SW 21:26:39 39° WNW 21:30:01 10° N
Lacrosse 4 Rocket 2.8 21:26:48 18° ESE 21:27:24 18° ESE 21:30:13 10° ENE
SPOT 1/Viking Rocket 4.0 21:24:42 16° SE 21:28:34 47° ENE 21:33:29 10° N
SeaSat 1 2.4 21:24:32 15° SSE 21:28:36 82° ENE 21:33:34 10° NNW
CZ-4B R/B 3.6 21:31:57 10° NNE 21:36:59 60° ESE 21:42:07 10° S
Cosmos 1238 4.0 21:35:16 15° S 21:37:45 77° E 21:40:46 10° N
DEBRIS 3.4 21:40:50 10° WNW 21:44:51 31° SW 21:45:48 23° S
Cosmos 1461 4.1 21:43:04 10° NW 21:46:57 34° WSW 21:49:44 15° S
ATLAS 3B R/B 3.1 21:43:58 10° S 21:51:22 52° ESE 21:58:39 10° NE
Cosmos 1758 Rocket 4.3 21:49:55 26° SE 21:51:35 35° E 21:55:34 10° NNE
Tsikada Rocket 4.5 21:46:17 10° SSW 21:52:38 64° W 21:58:58 10° N
ARGOS 3.2 21:51:45 23° SSE 21:55:10 67° ENE 22:00:34 10° N
Cosmos 2369 Rocket 2.3 21:52:49 10° NNW 21:58:30 68° ENE 22:01:40 27° SE
USA 234 3.2 22:01:10 24° SE 22:05:30 86° SW 22:12:07 10° NW
Atlas Centaur 2 3.6 22:01:52 10° WSW 22:08:50 36° S 22:12:43 25° SE
Cosmos 1825 Rocket 3.6 22:05:59 20° S 22:09:03 84° W 22:13:31 10° N
Envisat 4.4 22:05:42 10° SSW 22:10:16 33° W 22:14:51 10° NNW
NOAA 11 4.1 22:08:02 27° SSE 22:11:06 84° ENE 22:16:33 10° NNW
CZ-4C R/B 3.5 22:10:25 36° SSE 22:12:00 70° ENE 22:16:05 10° N
Cosmos 407 Rocket 3.5 22:11:19 23° S 22:14:34 65° ESE 22:19:45 10° NNE
ISS -2.6 22:14:25 10° WSW 22:17:38 55° NNW 22:20:52 10° NE
SL-27 R/B 4.3 22:21:08 17° ENE 22:21:08 17° ENE 22:22:26 10° NE
CZ-4 R/B 4.0 22:15:30 10° N 22:20:30 77° WNW 22:24:19 17° SSW
PSLV R/B 3.2 22:18:55 10° W 22:22:28 77° S 22:22:59 61° ESE
SL-23 DEB 4.4 22:16:39 10° SW 22:22:41 50° SE 22:26:23 10° ENE
SL-08 RB Rocket 3.7 22:21:16 34° S 22:23:13 78° WSW 22:27:46 10° NNW
Cosmos 2263 4.1 22:18:54 10° NNW 22:24:33 80° ENE 22:26:58 36° SSE
COSMOS 2406 4.1 22:27:26 29° ESE 22:27:57 30° ESE 22:32:51 10° NE
USA 238 DEB 4.2 22:26:24 31° SSE 22:28:40 38° ESE 22:35:04 10° NE
USA 238 4.3 22:26:35 31° SSE 22:28:45 38° ESE 22:35:09 10° NE
Landsat 7 3.7 22:27:37 40° SSE 22:29:22 87° ENE 22:34:10 10° NNW
Meteor 1-22 Rocket 4.3 22:23:55 10° NNW 22:29:30 77° W 22:32:25 30° S
Cosmos 1953 3.0 22:26:47 10° N 22:30:31 38° ENE 22:30:51 37° E
Cosmos 1634 Rocket 4.3 22:24:38 10° NNW 22:30:43 62° W 22:34:40 23° SSW
Spot 4 4.2 22:30:07 39° ESE 22:31:30 52° ENE 22:36:08 10° N
COSMOS 2455 3.9 22:26:34 10° SW 22:32:19 46° NW 22:38:07 10° NNE
Cosmos 1954 Rocket 4.1 22:32:27 39° SSE 22:34:05 55° ESE 22:39:15 10° NNE
Terra 1.7 22:43:54 49° SSE 22:45:11 88° ENE 22:49:58 10° NNW
Cosmos 1346 Rocket 4.1 22:48:52 22° SW 22:50:44 36° WNW 22:54:24 10° N
IGS 5A 3.3 22:51:07 67° S 22:51:40 86° WSW 22:55:51 10° NNW
Cosmos 2279 Rocket 4.1 22:47:55 10° NNW 22:54:09 70° W 22:56:57 34° SSW
Cosmos 1544 4.4 22:52:29 10° NNE 22:55:27 30° ENE 22:55:27 30° ENE
Cosmos 2084 3.9 22:53:19 10° NNW 22:57:22 51° NE 22:57:57 47° E
Cosmos 1943 4.4 22:53:25 10° SW 22:58:45 41° WNW 23:04:08 10° NNE
H-2A R/B 2.1 22:57:40 45° SSW 22:59:03 65° WSW 23:04:05 10° NNW
Cosmos 1943 Rocket 2.1 22:57:51 10° NNW 23:03:26 89° ENE 23:04:49 53° SSE
Cosmos 1842 3.7 23:04:02 50° WSW 23:04:34 55° W 23:08:25 10° N
Lacrosse 4 Rocket 2.7 23:03:03 16° WSW 23:05:49 38° NW 23:09:40 10° NNE
Cosmos 1932 4.3 23:03:15 32° SSW 23:06:21 82° ESE 23:12:36 10° NE
Cosmos 2221 4.2 23:04:38 10° NNE 23:07:57 21° ENE 23:07:57 21° ENE
Cosmos 1570 Rocket 4.1 23:03:08 10° NNW 23:08:30 69° ENE 23:09:35 54° SE
Cosmos 1850 Rocket 4.0 23:09:59 57° SE 23:10:25 59° ESE 23:15:34 10° NNE
Cosmos-2242 3.4 23:06:45 10° NNW 23:11:05 57° W 23:11:38 52° SW
Cosmos 1607 4.0 23:12:49 50° SSE 23:13:48 55° ESE 23:19:52 10° NE
Cosmos 1758 3.6 23:12:10 10° NNW 23:16:14 62° W 23:16:19 61° W
Cosmos 1656 Rocket 4.0 23:12:56 10° NNW 23:18:34 59° ENE 23:19:52 47° ESE
Okean 3 Rocket 4.1 23:23:14 46° ENE 23:23:14 46° ENE 23:27:01 10° NNE
Meteor 2-5 Rocket 4.0 23:23:06 50° ESE 23:23:53 54° E 23:29:30 10° NNE
Cosmos 1023 Rocket 4.5 23:22:55 54° SSW 23:24:09 82° WNW 23:29:28 10° NNE
Cosmos 1140 Rocket 3.6 23:28:55 50° SW 23:30:13 73° WNW 23:35:29 10° NNE
Cosmos 1733 4.1 23:28:38 10° N 23:31:40 42° NE 23:31:40 42° NE
Cosmos 2369 Rocket 4.1 23:38:26 10° WNW 23:41:52 17° W 23:43:28 15° WSW
ATLAS 3B R/B 4.0 23:35:07 10° WSW 23:42:20 42° NW 23:49:22 10° NNE
COSMOS 2487 3.9 23:47:19 36° NNE 23:47:19 36° NNE 23:49:35 10° NNE
ALOS 2 3.4 23:46:16 41° ENE 23:46:16 41° ENE 23:50:16 10° N
NOSS 3-2 (A) 3.7 23:47:21 50° ESE 23:47:25 50° ESE 23:53:43 10° NE
Cosmos 1408 Rocket 4.4 23:53:16 42° ENE 23:53:16 42° ENE 23:56:50 10° NNE
ISS -0.3 23:52:20 10° WNW 23:54:37 17° NNW 23:56:55 10° NNE
Cosmos 1470 3.6 23:50:47 10° NNW 23:53:49 48° NW 23:53:49 48° NW
